Overview Statistics Trail Chart Weather Telemetry Raw packets
 

This is the latest recevied weather packets stored in our database for station/object KD0MAC. If no packets are shown the sender has not sent any weather packets the latest 10 day(s).

<< 20 21 22 23 24 25 26 >>
Time Temp. Humidity Pressure Rain* Wind** Luminosity Snow
1788560376 37.78° C 34% 1011.2 hPa 0 mm - 291 W/m² -
1788560324 37.78° C 34% 1011.2 hPa 0 mm - 291 W/m² -
1788560075 37.78° C 34% 1011.2 hPa 0 mm - 312 W/m² -
1788560024 37.78° C 34% 1011.2 hPa 0 mm - 312 W/m² -
1788559777 37.78° C 34% 1011.2 hPa 0 mm - 323 W/m² -
1788559475 37.78° C 34% 1011.2 hPa 0 mm - 331 W/m² -
1788559425 37.78° C 34% 1011.2 hPa 0 mm - 331 W/m² -
1788559175 37.78° C 34% 1011.2 hPa 0 mm - 347 W/m² -
1788558876 37.22° C 34% 1010.8 hPa 0 mm - 355 W/m² -
1788558575 36.67° C 35% 1011.2 hPa 0 mm - 249 W/m² -
1788558276 36.11° C 35% 1011.2 hPa 0 mm - 147 W/m² -
1788557975 36.11° C 36% 1011.2 hPa 0 mm - 117 W/m² -
1788557925 36.11° C 36% 1011.2 hPa 0 mm - 117 W/m² -
1788557675 36.67° C 35% 1011.2 hPa 0 mm - 122 W/m² -
1788557375 37.78° C 35% 1011.2 hPa 0 mm - 345 W/m² -
1788557076 37.78° C 34% 1011.2 hPa 0 mm - 345 W/m² -
1788556776 38.89° C 34% 1011.2 hPa 0 mm - 240 W/m² -
1788556476 38.89° C 31% 1011.2 hPa 0 mm - 427 W/m² -
1788556176 38.89° C 32% 1011.2 hPa 0 mm - 434 W/m² -
1788555875 38.89° C 33% 1011.2 hPa 0 mm - 434 W/m² -
1788555825 38.89° C 33% 1011.2 hPa 0 mm - 434 W/m² -
1788555575 38.89° C 31% 1011.2 hPa 0 mm - 455 W/m² -
1788555275 39.44° C 32% 1011.2 hPa 0 mm - 463 W/m² -
1788555224 39.44° C 32% 1011.2 hPa 0 mm - 463 W/m² -
1788554976 38.89° C 31% 1011.2 hPa 0 mm - 469 W/m² -

* Rain latest hour (hover to see other rain measurements)
** Current wind speed in m/s (hover to see current wind gust speed)